COSMOS 252 DEB, 3900

Orbit data source: Space-Track

COSMOS 252 DEB, 3900 is space debris in LEO originally from a launch on Fri, 01 Nov 1968 UTC launched from the Tyuratam Missile And Space Complex (TTMTR). Debris objects in space refer to the collection of defunct objects orbiting the Earth. Examples of debris include non-operational satellites, rocket bodies, and fragments generated from explosions, collisions, or faulty payload assembly.

Loading next visibility...
Identifier
3900, 1968-097BM
Orbit
LEO
Country
Flag of CISCIS
Related business
Manufacturer
Unknown
Mission
Spacecraft
Bus & Motor
Unknown
Mass
Unknown
Launch date (UTC)
1968-11-01 (57 years ago)
Launch vehicle
Unknown
Launch site
Tyuratam Missile And Space Complex (TTMTR)
Object type
Payload
Rocket body
Debris
Shape & HBR
Unknown shape, 0.1 m
Radar Cross Section
Small (<0.1 m²)

Expand to show TLE details & history
Last TLE update: 18 hours ago

TLE from 18 hours ago
0 COSMOS 252 DEB
1 03900U 68097BM  25287.88979781  .00031076  00000-0  27177-2 0  9996
2 03900  62.1988  92.0787 0233236 172.8532 187.5975 14.78001601853150
Epoch: 2025-10-14T21:21Z
TLE epoch observation values (Epoch: 2025-10-14T21:21:18.530Z)
Latitude
-0.00005°
Longitude
108.07972°
Altitude
799.639 km
Speed
7.368 km/s
True Right ascension
06h 08m 18s
True Declination
0° 00' 00"
Sunlit
Object was in daylight at epoch
Visualization orbit readout
Latitude
Unknown
Longitude
Unknown
Altitude
Unknown
Speed
Unknown
Apparent Right ascension
Unknown
Apparent Declination
Unknown
Sunlit
N/A
Visualization observer readout
Local Sidereal Time
09:29:47
Azimuth
Unknown
Elevation
Unknown
Doppler factor
Unknown
Orbital elements
Apogee altitude
798.113 km
Perigee altitude
470.991 km
Semi-major axis
7,012.689 km
Eccentricity
0.02332
Inclination
62.1988°
RAAN
92.0787°
Arg. of periapsis
172.8532°
True anomaly
187.25407°
Mean anomaly
187.5975°
Eccentric anomaly
187.42481°
Mean motion
3.69587 °/min
Orbital period
97.41 mins
BSTAR
0.0027177
Loading maneuver chart data...
Computing Atmospheric mass density...

Documentation

Showing up to 5 results
|